Columbia, MO

11:31 PM CST on February 19, 2017 (GMT -0600)
Columbia Regional

Weather History for KCOU - April, 2014

Change the Weather History Date:

Monday, April 28, 2014

  Actual Average Record
Temperature  
Mean Temperature 62 °F 59 °F  
Max Temperature 72 °F 70 °F 88 °F (1970)
Min Temperature 51 °F 48 °F 32 °F (1928)
Degree Days  
Heating Degree Days 3 7  
Month to date heating degree days 268 306  
Since 1 July heating degree days 5427 4888  
Cooling Degree Days 0 1  
Month to date cooling degree days 11 21  
Year to date cooling degree days 11 24  
Growing Degree Days 14 (Base 50)    
Moisture  
Dew Point 50 °F    
Average Humidity 66    
Maximum Humidity 90    
Minimum Humidity 42    
Precipitation  
Precipitation 0.14 in 0.17 in 4.50 in (1996)
Month to date precipitation 8.18 4.15  
Year to date precipitation 11.67 11.23  
Snow  
Snow 0.00 in 0.00 in 0.00 in (2015)
Month to date snowfall T 0.2  
Since 1 July snowfall 17.8 18.0  
Snow Depth 0.00 in    
Sea Level Pressure  
Sea Level Pressure 29.42 in    
Wind  
Wind Speed 16 mph (SSW)    
Max Wind Speed 32 mph    
Max Gust Speed 41 mph    
Visibility 10 miles    
Events Rain , Thunderstorm    
T = Trace of Precipitation, MM = Missing Value Source: NWS Daily Summary

Daily Weather History Graph

Daily Weather History Graph

Search for Another Location

Airport or City:

Trip Planner

Search our weather history database for the weather conditions in past years. The results will help you decide how hot, cold, wet, or windy it might be!

Date:

Astronomy

Apr. 28, 2014 Rise Set
Actual Time 6:14 AM CDT 7:58 PM CDT
Civil Twilight 5:46 AM CDT 8:27 PM CDT
Nautical Twilight 5:11 AM CDT 9:01 PM CDT
Astronomical Twilight 4:35 AM CDT 9:38 PM CDT
Moon 5:52 AM CDT (4/28) 7:37 PM CDT (4/28)
Length of Visible Light 14h 40m
Length of Day
13h 43m
Waning Crescent, 0% of the Moon is Illuminated
Apr 28
Waning Crescent
Apr 29
New
May 6
First Quarter
May 14
Full
May 21
Last Quarter

Hourly Weather History & Observations

Time (CDT) Temp. Dew Point Humidity Pressure Visibility Wind Dir Wind Speed Gust Speed Precip Events Conditions
12:54 AM 59.0 °F 55.9 °F 90% 29.42 in 10.0 mi ESE 11.5 mph - 0.00 in   Clear
1:54 AM 61.0 °F 59.0 °F 93% 29.54 in 4.0 mi South 29.9 mph 38.0 mph 0.01 in Rain Rain
2:05 AM 61.0 °F 59.0 °F 93% 29.52 in 4.0 mi SSE 18.4 mph 26.5 mph 0.06 in Rain , Thunderstorm Thunderstorms and Rain
2:20 AM 60.1 °F 57.0 °F 90% 29.47 in 7.0 mi ESE 13.8 mph - 0.11 in Rain Rain
2:54 AM 60.8 °F 57.2 °F 88% 29.37 in 10.0 mi ESE 20.7 mph 31.1 mph N/A Rain Light Rain
3:54 AM 57.9 °F 55.0 °F 90% 29.38 in 10.0 mi SE 10.4 mph - 0.00 in   Clear
4:54 AM 57.0 °F 54.0 °F 89% 29.39 in 10.0 mi SE 12.7 mph - N/A   Clear
5:54 AM 57.0 °F 54.0 °F 89% 29.40 in 10.0 mi SE 17.3 mph - N/A   Mostly Cloudy
6:54 AM 57.0 °F 54.0 °F 89% 29.38 in 10.0 mi SE 17.3 mph - N/A   Overcast
7:54 AM 59.0 °F 55.9 °F 90% 29.37 in 10.0 mi SSE 16.1 mph - N/A   Overcast
8:54 AM 62.1 °F 57.0 °F 84% 29.37 in 10.0 mi SSE 16.1 mph 25.3 mph N/A   Overcast
9:54 AM 66.0 °F 57.0 °F 73% 29.38 in 10.0 mi South 18.4 mph 26.5 mph N/A   Overcast
10:54 AM 68.0 °F 57.0 °F 68% 29.38 in 10.0 mi South 18.4 mph 29.9 mph N/A   Overcast
11:54 AM 71.1 °F 55.9 °F 59% 29.38 in 10.0 mi South 20.7 mph 25.3 mph N/A   Overcast
12:22 PM 68.0 °F 54.0 °F 61% 29.38 in 10.0 mi SSW 20.7 mph 28.8 mph N/A Thunderstorm Thunderstorm
12:54 PM 71.1 °F 48.9 °F 45% 29.38 in 10.0 mi SW 24.2 mph 36.8 mph 0.00 in Thunderstorm Mostly Cloudy
1:11 PM 70.0 °F 48.9 °F 47% 29.40 in 10.0 mi WSW 27.6 mph 34.5 mph N/A   Mostly Cloudy
1:54 PM 66.9 °F 46.9 °F 49% 29.40 in 10.0 mi WSW 27.6 mph 35.7 mph N/A   Mostly Cloudy
2:54 PM 66.9 °F 48.0 °F 51% 29.42 in 10.0 mi SW 20.7 mph 29.9 mph N/A   Mostly Cloudy
3:54 PM 64.4 °F 46.4 °F 52% 29.44 in 10.0 mi West 21.9 mph 31.1 mph N/A   Mostly Cloudy
4:54 PM 64.0 °F 45.0 °F 50% 29.44 in 10.0 mi WSW 19.6 mph 27.6 mph N/A   Scattered Clouds
5:54 PM 63.0 °F 43.0 °F 48% 29.43 in 10.0 mi SW 15.0 mph 28.8 mph N/A   Scattered Clouds
6:54 PM 63.0 °F 43.0 °F 48% 29.43 in 10.0 mi SW 11.5 mph - N/A   Clear
7:54 PM 59.0 °F 44.1 °F 58% 29.45 in 10.0 mi WSW 8.1 mph - N/A   Clear
8:54 PM 61.0 °F 37.9 °F 42% 29.46 in 10.0 mi West 12.7 mph - N/A   Clear
9:54 PM 57.0 °F 37.9 °F 49% 29.46 in 10.0 mi SW 9.2 mph - N/A   Partly Cloudy
10:54 PM 55.0 °F 37.9 °F 53% 29.47 in 10.0 mi SW 4.6 mph - N/A   Clear
11:54 PM 54.0 °F 39.0 °F 57% 29.46 in 10.0 mi WSW 5.8 mph - N/A   Scattered Clouds